Regional Weather Roundup
Issued by NWS

Home | Current Version | Previous Version | Text Only | Print | Product List | Glossary On
Versions: 1 2 3 4 5 6 7 8 9 10 11 12 13 14 15 16 17 18 19 20 21 22 23 24 25 26 27 28 29 30 31 32 33 34 35 36 37 38 39 40 41 42 43 44 45 46 47 48 49 50
000
ASUS43 KFSD 050102
RWRSD

WEATHER ROUNDUP FOR SOUTH DAKOTA
NATIONAL WEATHER SERVICE SIOUX FALLS SD
700 PM CST WED MAR 04 2015

NOTE: "FAIR" INDICATES FEW OR NO CLOUDS BELOW 12,000 FEET WITH NO
SIGNIFICANT WEATHER AND/OR OBSTRUCTIONS TO VISIBILITY.


SDZ001>005-009-010-012>017-050200-
NORTHWEST AND NORTH CENTRAL SOUTH DAKOTA

CITY           SKY/WX    TMP DP  RH WIND       PRES   REMARKS
BUFFALO          N/A     10  -5  50 NW10      30.11F WCI  -4
FAITH            N/A      8  -8  48 N8        30.24R WCI  -4
MOBRIDGE       CLEAR      5  -8  55 N7        30.31R WCI  -7
$$

SDZ012>016-024>037-041>051-057-063-072>074-050200-
SOUTHWEST AND SOUTH CENTRAL SOUTH DAKOTA

CITY           SKY/WX    TMP DP  RH WIND       PRES   REMARKS
RAPID CTY ARPT CLEAR     10  -2  58 N8        30.21R WCI  -2
PIERRE         CLEAR      8  -7  50 N9        30.32S WCI  -5
CUSTER         CLEAR      7 -11  43 W8        30.02R WCI  -6
ELLSWORTH AFB  CLEAR     13  -2  49 N8        30.19R WCI   2
PHILIP         CLEAR      8  -3  61 N7        30.29R WCI  -3
PINE RIDGE     CLEAR     10   2  69 E6        30.21R WCI   0
SPEARFISH      FAIR       9  -4  56 W5        30.15S WCI   0
WINNER         FAIR       9  -6  50 NE5       30.32R WCI   1
$$

SDZ004>011-016>023-039-040-050200-
NORTHEAST SOUTH DAKOTA

CITY           SKY/WX    TMP DP  RH WIND       PRES   REMARKS
ABERDEEN       CLEAR      0 -13  54 NW9       30.40R WCI -15
WATERTOWN      CLEAR     -3 -13  62 NW10      30.32R WCI -20
$$

SDZ017-020-022-023-036>040-048>070-050200-
SOUTHEAST SOUTH DAKOTA

CITY           SKY/WX    TMP DP  RH WIND       PRES   REMARKS
SIOUX FALLS    CLEAR      3  -7  63 NW10      30.36R WCI -12
HURON          CLEAR      1  -6  72 NE6       30.39R WCI -10
MITCHELL       CLEAR      4  -6  63 N6        30.40R WCI  -7
YANKTON        CLEAR      9  -6  52 NW10      30.40R WCI  -6
$$

ABBREVIATIONS USED IN REMARKS
   TC - TEMPERATURE IN CELSIUS
  WCI - WIND CHILL INDEX
   HX - HEAT INDEX
  VSB - VISIBILITY



USA.gov is the U.S. government's official web portal to all federal, state and local government web resources and services.